TITAN 3C TRANSTAGE DEB, 26779

Orbit data source: Space-Track

TITAN 3C TRANSTAGE DEB, 26779 is space debris in HEO originally from a launch on Tue, 21 Dec 1965 UTC launched from the Air Force Eastern Test Range (AFETR). Debris objects in space refer to the collection of defunct objects orbiting the Earth. Examples of debris include non-operational satellites, rocket bodies, and fragments generated from explosions, collisions, or faulty payload assembly.

Loading next visibility...
Identifier
26779, 1965-108AX
Orbit
HEO
Country
Flag of USUS
Related business
Manufacturer
Unknown
Mission
Spacecraft
Bus & Motor
Unknown
Mass
Unknown
Launch date (UTC)
1965-12-21 (60 years ago)
Launch vehicle
Unknown
Launch site
Air Force Eastern Test Range (AFETR)
Object type
Payload
Rocket body
Debris
Shape & HBR
Unknown shape, 0.2 m
Radar Cross Section
Small (<0.1 m²)

Expand to show TLE details & history
Last TLE update: 12 hours ago

TLE from 12 hours ago
0 TITAN 3C TRANSTAGE DEB
1 26779U 65108AX  26034.52505146 -.00000393  00000-0 -16534-1 0  9991
2 26779  26.3527 125.9013 6769994 114.1762 359.3018  2.60297580226638
Epoch: 2026-02-03T12:36Z
TLE epoch observation values (Epoch: 2026-02-03T12:36:04.446Z)
Latitude
24.92324°
Longitude
-85.59°
Altitude
857.171 km
Speed
9.611 km/s
True Right ascension
15h 48m 31s
True Declination
24° 47' 38"
Sunlit
Object was in daylight at epoch
Visualization orbit readout
Latitude
Unknown
Longitude
Unknown
Altitude
Unknown
Speed
Unknown
Apparent Right ascension
Unknown
Apparent Declination
Unknown
Sunlit
N/A
Visualization observer readout
Local Sidereal Time
02:17:25
Azimuth
Unknown
Elevation
Unknown
Doppler factor
Unknown
Orbital elements
Apogee altitude
31,063.608 km
Perigee altitude
833.378 km
Semi-major axis
22,326.63 km
Eccentricity
0.677
Inclination
26.3527°
RAAN
125.9013°
Arg. of periapsis
114.1762°
True anomaly
355.07949°
Mean anomaly
359.3018°
Eccentric anomaly
357.83947°
Mean motion
0.65059 °/min
Orbital period
553.34 mins
BSTAR
-0.016534
Loading maneuver chart data...
Computing Atmospheric mass density...

Documentation

Showing up to 5 results
|